Stations météo

réclame
Mon MeteoGroup
Muenchen-Stadt, Allemagne (10865): Température de l'air & dewpoint: 19.09.2018 09:00:00 - 25.09.2018 09:00:00 (CEST)Muenchen-Stadt, Allemagne (10865): Température de l'air 5cm & Température de l'air -5cm: 19.09.2018 09:00:00 - 25.09.2018 09:00:00 (CEST)Muenchen-Stadt, Allemagne (10865): Température de l'air -20cm & Température de l'air -100cm: 19.09.2018 09:00:00 - 25.09.2018 09:00:00 (CEST)Muenchen-Stadt, Allemagne (10865): Vitesse du vent & gusts: 19.09.2018 09:00:00 - 25.09.2018 09:00:00 (CEST)Muenchen-Stadt, Allemagne (10865): Direction du vent: 19.09.2018 09:00:00 - 25.09.2018 09:00:00 (CEST)Muenchen-Stadt, Allemagne (10865): reduced air pressure: 19.09.2018 09:00:00 - 25.09.2018 09:00:00 (CEST)Muenchen-Stadt, Allemagne (10865): visibility: 19.09.2018 09:00:00 - 25.09.2018 09:00:00 (CEST)Muenchen-Stadt, Allemagne (10865): Ensoleillement: 19.09.2018 09:00:00 - 25.09.2018 09:00:00 (CEST)Muenchen-Stadt, Allemagne (10865): Quantités de précipitations: 19.09.2018 09:00:00 - 25.09.2018 09:00:00 (CEST)
Date & Time tt [°C] td [°C] tt 5cm [°C] tt -5cm [°C] tt -20cm [°C] tt -100cm [°C] ff [km/h] ff [knt] fx [km/h] fx [knt] dd ppp [hPa] vv [km] sd [min] rr [mm]
25.09.2018 09:00:00 6,2 3,2 5,2 8,2 15,1 20,2 5 3 10 5 NNE 1038,8 31 26 0,0
25.09.2018 08:00:00 4,6 2,9 3,2 7,9 15,3 20,2 3 2 6 4 NW 1038,5 39 0 0,0
25.09.2018 07:00:00 4,7 2,8 2,9 7,9 15,5 20,2 5 3 9 5 W 1037,9 47 0 0,0
25.09.2018 06:00:00 4,8 2,7 2,9 8,1 15,7 20,2 6 4 10 5 WSW 1037,6 54 0 0,0
25.09.2018 05:00:00 4,9 2,7 3,0 8,4 16,0 20,2 5 3 9 5 SW 1037,4 57 0 0,0
25.09.2018 04:00:00 4,9 2,6 3,1 8,7 16,2 20,2 6 3 9 5 W 1037,2 61 0 0,0
25.09.2018 03:00:00 5,5 2,7 3,6 9,0 16,4 20,3 7 4 13 7 WSW 1036,9 70 0 0,0
25.09.2018 02:00:00 6,1 2,7 4,5 9,3 16,7 20,3 7 4 13 7 SW 1036,6 64 0 0,0
25.09.2018 01:00:00 6,5 2,8 4,4 9,7 16,9 20,3 8 5 12 7 WSW 1036,2 60 0 0,0
25.09.2018 00:00:00 6,6 3,0 4,5 10,2 17,1 20,3 6 3 11 6 WSW 1036,0 64 0 0,0
24.09.2018 23:00:00 7,1 3,2 4,9 10,7 17,4 20,3 7 4 11 6 W 1035,6 62 0 0,0
24.09.2018 22:00:00 8,1 3,1 5,9 11,2 17,5 20,3 8 4 13 7 WSW 1035,0 63 0 0,0
24.09.2018 21:00:00 8,8 2,8 6,6 11,9 17,7 20,3 8 4 11 6 W 1034,6 70 0 0,0
24.09.2018 20:00:00 9,3 2,3 7,3 12,6 17,8 20,3 6 3 13 7 W 1033,7 70 0 0,0
24.09.2018 19:00:00 10,8 1,0 9,1 13,5 17,8 20,3 8 5 25 14 NNW 1032,9 70 25 0,0
24.09.2018 18:00:00 12,0 -0,5 11,4 14,7 17,8 20,4 16 9 31 17 NNW 1032,1 70 37 0,0
24.09.2018 17:00:00 12,8 1,0 12,8 16,7 17,7 20,4 13 7 27 14 W 1031,8 70 41 0,0
24.09.2018 16:00:00 11,6 1,5 11,9 17,5 17,5 20,4 16 8 33 18 WNW 1032,2 70 35 0,0
24.09.2018 15:00:00 12,4 0,7 16,0 17,7 17,4 20,4 16 9 39 21 W 1032,2 38 33 0,0
24.09.2018 14:00:00 12,0 0,9 14,4 17,7 17,3 20,4 19 10 33 18 WNW 1032,3 48 33 0,0
24.09.2018 13:00:00 11,7 2,8 15,8 16,8 17,2 20,4 19 11 39 21 WNW 1032,4 38 42 0,0
24.09.2018 12:00:00 9,8 2,1 10,5 15,6 17,3 20,4 23 12 35 19 NW 1032,8 38 30 0,0
24.09.2018 11:00:00 9,9 3,2 12,8 14,2 17,4 20,4 19 11 37 20 WNW 1032,4 40 34 0,0
24.09.2018 10:00:00 8,9 4,2 9,5 12,3 17,6 20,4 15 8 31 17 WNW 1031,9 31 27 0,0
24.09.2018 09:00:00 8,0 4,2 7,2 11,6 17,9 20,4 16 9 31 17 WNW 1030,9 60 19 0,0
24.09.2018 08:00:00 7,5 4,6 6,4 11,7 18,1 20,4 11 6 21 11 WNW 1029,6 70 0 0,0
24.09.2018 07:00:00 7,5 4,9 6,8 11,9 18,3 20,5 11 6 22 12 W 1028,3 70 0 0,0
24.09.2018 06:00:00 7,7 4,5 6,7 12,4 18,5 20,5 16 8 27 14 NW 1026,9 70 0 0,0
24.09.2018 05:00:00 7,9 5,3 7,1 12,8 18,8 20,5 14 8 39 21 NW 1026,0 70 0 0,0
24.09.2018 04:00:00 8,5 6,8 8,2 13,3 19,0 20,5 19 11 36 19 NNW 1024,7 69 0 0,0
24.09.2018 03:00:00 8,9 7,1 8,1 13,8 19,2 20,5 21 11 40 22 NW 1023,7 70 0 0,0
24.09.2018 02:00:00 9,7 8,0 9,1 14,4 19,5 20,5 18 10 47 26 WNW 1023,0 70 0 0,4
24.09.2018 01:00:00 11,0 10,0 10,6 15,1 19,7 20,5 21 12 48 26 W 1021,0 4,1 0 1,3
24.09.2018 00:00:00 12,2 10,7 11,4 15,7 19,9 20,5 26 14 52 28 W 1018,2 4,3 0 1,3
23.09.2018 23:00:00 13,5 12,0 12,7 16,5 20,0 20,5 25 13 55 30 W 1013,8 5 0 3,4
23.09.2018 22:00:00 13,9 13,0 13,4 17,4 20,1 20,5 24 13 76 41 WNW 1012,3 2,9 0 7,3
23.09.2018 21:00:00 22,8 14,8 21,4 19,2 20,1 20,6 29 15 68 37 W 1006,6 70 0 0,0
23.09.2018 20:00:00 23,7 14,2 22,1 19,4 20,0 20,6 29 15 58 31 W 1005,5 70 0 0,0
23.09.2018 19:00:00 24,1 14,3 22,3 20,1 19,9 20,6 32 17 59 32 WSW 1005,0 70 56 0,0
23.09.2018 18:00:00 24,9 14,5 23,2 21,2 19,7 20,6 25 14 43 23 W 1005,8 70 15 0,0
23.09.2018 17:00:00 24,8 14,4 24,0 22,6 19,4 20,6 29 15 51 27 WSW 1006,9 70 17 0,0
23.09.2018 16:00:00 25,4 14,5 27,5 23,6 19,1 20,6 27 15 69 37 W 1008,5 56 60 0,0
23.09.2018 15:00:00 25,1 14,4 27,2 23,3 18,8 20,6 29 15 66 36 W 1009,8 31 58 0,0
23.09.2018 14:00:00 23,1 14,2 23,9 22,2 18,6 20,6 29 15 60 33 W 1011,6 27 37 0,0
23.09.2018 13:00:00 22,5 14,6 23,3 20,7 18,5 20,6 32 18 56 30 W 1012,8 54 20 0,0
23.09.2018 12:00:00 20,4 14,4 20,5 19,2 18,4 20,6 27 14 52 28 W 1014,2 52 7 0,0
23.09.2018 11:00:00 18,6 14,4 17,5 18,4 18,5 20,6 17 9 38 21 W 1015,0 47 16 0,0
23.09.2018 10:00:00 14,3 13,0 14,3 15,6 18,6 20,6 5 3 15 8 S 1016,3 62 0 0,0
23.09.2018 09:00:00 12,8 11,8 12,4 14,9 18,7 20,6 9 5 19 10 S 1016,8 70 0 0,5
23.09.2018 08:00:00 12,1 11,5 11,8 14,7 18,8 20,6 9 5 19 10 SSE 1017,7 2,1 0 2,4
23.09.2018 07:00:00 11,8 11,0 11,5 14,7 19,0 20,7 11 6 16 9 SSE 1018,4 6 0 0,8
23.09.2018 06:00:00 11,6 10,8 11,4 14,8 19,1 20,7 6 3 11 6 S 1019,2 2,4 0 1,0
23.09.2018 05:00:00 11,5 10,9 11,2 14,8 19,3 20,7 6 3 17 9 WSW 1020,3 2,0 0 1,7
23.09.2018 04:00:00 11,2 10,3 10,9 14,9 19,4 20,7 8 4 20 11 W 1021,0 1,9 0 0,5
23.09.2018 03:00:00 11,4 10,2 10,8 15,1 19,6 20,7 12 7 35 19 W 1021,5 6 0 0,5
23.09.2018 02:00:00 12,3 9,5 11,1 15,6 19,7 20,7 14 8 23 12 W 1021,6 11 0 0,3
23.09.2018 01:00:00 12,8 9,9 11,4 15,9 19,9 20,7 7 4 17 9 SW 1021,3 48 0 0,8
23.09.2018 00:00:00 13,8 9,1 12,6 16,1 20,0 20,7 10 5 18 10 SW 1021,0 35 0 0,1
22.09.2018 23:00:00 14,0 9,3 12,4 16,5 20,1 20,7 6 4 14 8 SW 1020,8 28 0 0,1
22.09.2018 22:00:00 14,7 8,9 13,5 16,9 20,2 20,7 7 4 14 7 SSW 1020,9 60 0 0,1
22.09.2018 21:00:00 14,9 7,9 12,9 17,3 20,3 20,7 6 3 11 6 WSW 1021,0 56 0 0,0
22.09.2018 20:00:00 15,6 6,2 14,6 17,7 20,3 20,7 5 3 13 7 WSW 1020,1 70 0 0,0
22.09.2018 19:00:00 15,9 5,2 14,6 18,3 20,3 20,7 7 4 17 9 WSW 1020,3 70 26 0,0
22.09.2018 18:00:00 16,8 5,2 16,4 19,8 20,1 20,7 9 5 21 11 WSW 1020,5 70 60 0,0
22.09.2018 17:00:00 16,7 3,8 18,4 22,0 19,9 20,7 8 4 21 12 W 1020,6 70 58 0,0
22.09.2018 16:00:00 16,4 4,2 18,2 22,4 19,7 20,7 10 6 22 12 WSW 1021,8 70 51 0,0
22.09.2018 15:00:00 16,3 4,3 20,5 22,0 19,6 20,7 12 6 23 12 W 1021,9 39 57 0,0
22.09.2018 14:00:00 15,7 4,5 18,5 19,8 19,5 20,7 9 5 19 10 W 1022,9 46 29 0,0
22.09.2018 13:00:00 15,1 3,8 16,8 19,4 19,5 20,7 9 5 22 12 W 1023,8 31 31 0,0
22.09.2018 12:00:00 14,4 4,6 17,1 18,7 19,6 20,7 11 6 22 12 W 1024,3 33 41 0,0
22.09.2018 11:00:00 14,0 4,3 15,1 17,3 19,7 20,7 14 8 27 15 W 1024,8 27 59 0,0
22.09.2018 10:00:00 13,6 6,9 14,4 15,6 19,9 20,7 16 9 26 14 W 1024,6 24 55 0,0
22.09.2018 09:00:00 12,0 8,3 11,7 14,8 20,1 20,7 9 5 15 8 WSW 1024,5 51 5 0,0
22.09.2018 08:00:00 11,4 8,1 10,5 14,4 20,4 20,7 8 4 18 10 SW 1024,4 65 0 0,0
22.09.2018 07:00:00 11,2 8,0 9,8 14,7 20,6 20,7 10 5 19 10 WSW 1024,5 60 0 0,0
22.09.2018 06:00:00 11,6 8,4 10,4 15,2 20,9 20,7 9 5 16 9 WSW 1024,1 70 0 0,0
22.09.2018 05:00:00 11,9 8,0 11,0 15,6 21,1 20,7 9 5 19 10 W 1023,9 70 0 0,0
22.09.2018 04:00:00 12,1 9,0 11,5 16,1 21,4 20,7 10 6 22 12 WSW 1023,5 70 0 0,0
22.09.2018 03:00:00 12,0 9,5 10,9 16,4 21,6 20,7 11 6 19 11 WSW 1022,9 70 0 0,0
22.09.2018 02:00:00 12,0 9,6 11,2 16,9 21,9 20,7 10 5 18 10 W 1022,4 70 0 0,2
22.09.2018 01:00:00 12,1 10,2 11,5 17,4 22,2 20,7 10 6 20 11 WSW 1022,1 16 0 0,2
22.09.2018 00:00:00 11,9 10,0 11,2 17,8 22,4 20,7 11 6 29 16 W 1021,0 58 0 1,0
21.09.2018 23:00:00 11,9 9,4 10,9 18,8 22,6 20,7 18 10 40 21 WNW 1019,5 13 0 1,2
21.09.2018 22:00:00 13,5 10,7 12,3 20,7 22,7 20,7 25 14 53 29 NW 1017,9 14 0 0,4
21.09.2018 21:00:00 20,3 12,7 19,3 22,3 22,7 20,7 18 10 42 23 W 1013,3 49 0 0,0
21.09.2018 20:00:00 22,1 11,7 21,0 23,4 22,7 20,7 27 15 50 27 W 1011,9 52 0 0,0
21.09.2018 19:00:00 24,0 12,1 22,9 24,6 22,6 20,7 13 7 36 19 W 1010,4 48 0 0,0
21.09.2018 18:00:00 24,9 11,2 24,1 25,9 22,3 20,7 15 8 30 16 W 1009,6 54 0 0,0
21.09.2018 17:00:00 25,9 10,0 25,7 27,2 22,0 20,7 23 12 40 22 W 1009,3 55 8 0,0
21.09.2018 16:00:00 27,3 8,5 27,5 29,7 21,6 20,6 22 12 54 29 W 1009,5 57 51 0,0
21.09.2018 15:00:00 27,8 9,8 30,8 30,2 21,2 20,6 26 14 46 25 W 1010,0 21 60 0,0
21.09.2018 14:00:00 27,7 11,6 32,3 29,1 20,8 20,6 21 11 36 20 W 1010,4 25 47 0,0
21.09.2018 13:00:00 28,0 12,7 33,3 28,8 20,5 20,6 16 9 34 18 W 1010,9 44 60 0,0
21.09.2018 12:00:00 26,3 12,0 30,2 25,8 20,4 20,6 15 8 29 16 WSW 1011,7 21 60 0,0
21.09.2018 11:00:00 24,4 12,0 27,5 22,4 20,5 20,6 14 8 23 12 WSW 1012,4 22 60 0,0
21.09.2018 10:00:00 22,5 11,4 23,4 18,0 20,6 20,6 10 5 20 11 SSW 1012,9 20 60 0,0
21.09.2018 09:00:00 19,5 10,8 17,3 16,9 20,8 20,6 13 7 21 12 SSW 1013,5 25 60 0,0
21.09.2018 08:00:00 16,8 11,6 13,6 16,6 21,0 20,6 11 6 16 9 SSW 1014,2 32 34 0,0
21.09.2018 07:00:00 14,4 12,6 12,2 16,6 21,3 20,6 9 5 11 6 S 1014,4 37 0 0,0
21.09.2018 06:00:00 13,2 12,3 11,5 16,9 21,5 20,6 5 3 7 4 SW 1015,2 30 0 0,0
21.09.2018 05:00:00 13,2 12,1 11,8 17,3 21,7 20,6 4 2 8 4 SSW 1015,3 34 0 0,0
21.09.2018 04:00:00 13,9 12,7 12,1 17,8 22,0 20,6 5 3 8 4 S 1015,4 31 0 0,0
21.09.2018 03:00:00 14,8 13,0 12,6 18,3 22,2 20,6 5 3 11 6 SSE 1015,5 31 0 0,0
21.09.2018 02:00:00 16,2 13,7 13,4 18,7 22,4 20,6 7 4 13 7 S 1015,8 31 0 0,0
21.09.2018 01:00:00 15,0 13,5 13,5 19,3 22,6 20,6 5 3 7 4 S 1016,5 29 0 0,0
21.09.2018 00:00:00 16,3 14,2 13,7 19,9 22,9 20,6 6 3 6 4 SSE 1016,6 24 0 0,0
20.09.2018 23:00:00 16,6 14,0 14,8 20,7 23,0 20,6 5 3 9 5 SE 1017,2 30 0 0,0
20.09.2018 22:00:00 17,8 14,3 15,7 21,5 23,2 20,6 7 4 10 5 SSE 1017,1 30 0 0,0
20.09.2018 21:00:00 18,5 13,8 16,6 22,5 23,2 20,6 6 3 10 5 ESE 1017,3 37 0 0,0
20.09.2018 20:00:00 20,1 13,6 18,2 23,8 23,2 20,6 6 3 12 6 ESE 1016,9 46 11 0,0
20.09.2018 19:00:00 23,9 12,7 21,2 25,5 23,0 20,6 8 5 16 9 E 1016,0 69 60 0,0
20.09.2018 18:00:00 25,6 11,9 24,1 27,6 22,7 20,6 10 5 17 9 E 1016,2 64 60 0,0
20.09.2018 17:00:00 26,9 11,1 28,3 30,5 22,2 20,6 10 5 29 15 E 1016,3 66 60 0,0
20.09.2018 16:00:00 27,2 13,4 32,9 31,5 21,7 20,6 7 4 18 10 ENE 1016,6 57 57 0,0
20.09.2018 15:00:00 26,6 12,8 33,2 32,2 21,2 20,6 8 4 18 10 NE 1017,3 48 60 0,0
20.09.2018 14:00:00 27,0 9,3 32,6 31,8 20,7 20,6 6 3 18 10 ENE 1017,9 25 60 0,0
20.09.2018 13:00:00 26,8 11,7 31,0 29,9 20,3 20,6 7 4 12 7 SE 1018,4 19 60 0,0
20.09.2018 12:00:00 25,2 12,7 30,5 27,0 20,1 20,6 6 3 12 6 ESE 1019,5 23 60 0,0
20.09.2018 11:00:00 23,6 13,3 26,6 23,4 20,1 20,6 6 3 11 6 SE 1020,1 17 60 0,0
20.09.2018 10:00:00 21,6 13,0 23,2 19,4 20,2 20,6 6 3 13 7 SSE 1020,7 19 60 0,0
20.09.2018 09:00:00 18,9 13,0 17,1 16,5 20,4 20,6 6 3 17 9 SW 1021,3 29 60 0,0
20.09.2018 08:00:00 15,4 12,6 13,0 16,0 20,6 20,6 6 4 11 6 S 1021,6 16 32 0,0
20.09.2018 07:00:00 13,6 12,3 12,0 16,1 20,8 20,6 3 2 11 6 S 1021,7 32 0 0,0
20.09.2018 06:00:00 13,3 12,4 12,0 16,4 21,0 20,6 4 2 5 3 W 1021,9 33 0 0,0
20.09.2018 05:00:00 13,8 12,6 12,4 16,9 21,3 20,6 2 1 8 4 SSE 1021,7 35 0 0,0
20.09.2018 04:00:00 15,5 13,3 13,1 17,3 21,5 20,6 8 4 13 7 SSW 1021,3 42 0 0,0
20.09.2018 03:00:00 15,9 13,7 13,8 17,8 21,7 20,6 8 4 13 7 SSW 1021,1 41 0 0,0
20.09.2018 02:00:00 17,0 14,2 14,7 18,3 21,9 20,5 7 4 13 7 S 1021,0 33 0 0,0
20.09.2018 01:00:00 16,2 14,8 14,3 18,7 22,1 20,5 7 4 10 5 S 1021,4 26 0 0,0
20.09.2018 00:00:00 16,2 14,7 14,7 19,3 22,3 20,5 5 3 8 4 S 1021,6 22 0 0,0
19.09.2018 23:00:00 17,8 15,2 15,7 19,9 22,5 20,5 5 3 10 5 S 1021,4 24 0 0,0
19.09.2018 22:00:00 18,1 14,6 15,7 20,6 22,6 20,5 8 4 12 7 S 1021,1 25 0 0,0
19.09.2018 21:00:00 18,4 14,1 16,5 21,5 22,7 20,5 5 3 8 4 SSE 1021,1 36 0 0,0
19.09.2018 20:00:00 19,7 14,0 17,7 22,7 22,6 20,5 6 4 9 5 E 1020,4 56 0 0,0
19.09.2018 19:00:00 22,0 14,5 20,4 24,3 22,5 20,5 6 3 9 5 NE 1019,8 63 59 0,0
19.09.2018 18:00:00 24,5 12,9 23,0 26,4 22,2 20,5 6 4 13 7 NE 1018,9 61 60 0,0
19.09.2018 17:00:00 25,2 13,4 27,9 29,2 21,8 20,5 6 3 13 7 ENE 1018,8 49 60 0,0
19.09.2018 16:00:00 24,8 13,8 31,0 29,7 21,4 20,5 8 4 13 7 NNE 1019,2 42 60 0,0
19.09.2018 15:00:00 24,6 13,4 29,7 29,0 21,1 20,5 4 2 13 7 SSE 1019,6 28 58 0,0
19.09.2018 14:00:00 22,3 14,4 27,9 25,3 20,9 20,5 5 3 21 11 NNE 1020,2 45 15 0,0
19.09.2018 13:00:00 21,8 15,1 24,9 24,9 20,7 20,5 10 5 18 10 NNE 1020,8 41 9 0,0
19.09.2018 12:00:00 21,5 13,7 22,7 23,5 20,6 20,5 6 4 17 9 WNW 1021,0 30 9 0,0
19.09.2018 11:00:00 22,1 13,1 24,5 23,0 20,6 20,5 6 3 12 7 SW 1020,8 30 52 0,0
19.09.2018 10:00:00 19,1 12,9 22,4 19,8 20,8 20,5 3 1 10 5 WNW 1021,5 34 36 0,0
19.09.2018 09:00:00 16,7 13,2 16,6 17,5 20,9 20,5 5 3 10 6 SW 1021,5 50 11 0,0

tt = Température de l'air
td = dewpoint
tt 5cm = Température de l'air 5cm
tt -5cm = Température de l'air -5cm
tt -20cm = Température de l'air -20cm
tt -100cm = Température de l'air -100cm
ff = Vitesse du vent
fx = gusts
dd = Direction du vent
ppp = reduced air pressure
vv = visibility
sd = Ensoleillement
rr = Quantités de précipitations

stations d'obs. à proximité